Tracking 30260 objects as of 15-Feb-2025
HD Live streaming from Space Station
objects crossing your sky now

STARLINK-32744

Track STARLINK-32744 now!
10-day predictions
STARLINK-32744 is classified as:


NORAD ID: 62509
Int'l Code: 2025-003Y
Perigee: 450.1 km
Apogee: 452.2 km
Inclination: 43.0 °
Period: 93.5 minutes
Semi major axis: 6822 km
RCS: Unknown
Launch date: January 6, 2025
Source: United States (US)
Launch site: AIR FORCE EASTERN TEST RANGE (AFETR)
Your satellite tracking list
Your tracking list is empty




NASA's NSSDC Master Catalog

Two Line Element Set (TLE):
1 62509U 25003Y   25045.47748837  .00000971  00000-0  30500-4 0  9995
2 62509  42.9977 324.5001 0001546 268.8572  91.2107 15.40698068  7140
Source of the keplerian elements: AFSPC